1508691600.92,56514,11.88,73288.3,-0.35,-1.05,-1.05,0,*65
1508691602.16,56515,11.94,73292.0,-0.37,-1.13,-1.09,0,*6D
1508691603.4,56516,11.94,73290.3,-0.37,-1.13,-1.09,0,*6E
1508691604.66,56517,11.94,73292.8,-0.35,-1.09,-1.05,0,*6A
1508691605.93,56518,11.88,73290.8,-0.35,-1.09,-1.05,0,*65
1508691607.19,56519,11.94,73292.3,-0.35,-1.09,-1.09,0,*68
1508691608.45,56520,11.94,73294.5,-0.35,-1.09,-1.09,0,*62
1508691609.71,56521,11.94,73294.0,-0.35,-1.09,-1.09,0,*63
1508691610.97,56522,11.94,73292.5,-0.35,-1.09,-1.09,0,*60
1508691612.21,56523,11.94,73296.0,-0.37,-1.13,-1.09,0,*68
1508691613.48,56524,11.94,73296.0,-0.35,-1.09,-1.05,0,*6A
1508691614.74,56525,11.94,73292.3,-0.35,-1.09,-1.09,0,*67
1508691615.97,56526,11.94,73294.3,-0.37,-1.13,-1.13,0,*66
1508691617.23,56527,11.94,73294.5,-0.35,-1.09,-1.09,0,*65
1508691618.5,56528,11.94,73292.0,-0.35,-1.09,-1.09,0,*6A
1508691619.73,56529,11.94,73292.3,-0.37,-1.13,-1.13,0,*69
1508691621.0,56530,11.94,73292.8,-0.35,-1.09,-1.05,0,*6F
1508691622.26,56531,11.88,73288.3,-0.35,-1.09,-1.09,0,*62
1508691623.52,56532,11.88,73292.5,-0.35,-1.09,-1.09,0,*61
1508691624.78,56533,11.94,73294.5,-0.35,-1.09,-1.09,0,*60
1508691626.01,56534,11.88,73290.3,-0.37,-1.09,-1.13,0,*6E
1508691627.25,56535,11.88,73290.8,-0.37,-1.05,-1.09,0,*68
1508691628.49,56536,11.94,73294.8,-0.37,-1.13,-1.13,0,*67
1508691629.75,56537,11.88,73292.3,-0.35,-1.09,-1.09,0,*64
1508691631.02,56538,11.88,73288.5,-0.35,-1.13,-1.09,0,*60
1508691632.25,56539,11.94,73292.8,-0.37,-1.13,-1.13,0,*68
1508691633.49,56540,11.94,73290.8,-0.35,-1.21,-1.13,0,*65
1508691634.73,56541,11.88,73290.5,-0.35,-1.33,-1.13,0,*67
1508691635.95,56542,11.88,73292.3,-0.37,-1.17,-1.13,0,*60
1508691637.19,56543,11.88,73290.0,-0.35,-1.21,-1.13,0,*66
1508691638.43,56544,11.88,73288.3,-0.35,-1.21,-1.13,0,*61
1508691639.69,56545,11.94,73292.0,-0.35,-1.13,-1.09,0,*6A
1508691640.93,56546,11.88,73292.3,-0.35,-1.21,-1.13,0,*63
1508691642.17,56547,11.88,73292.8,-0.35,-1.21,-1.13,0,*62
1508691643.4,56548,11.94,73294.8,-0.35,-1.21,-1.21,0,*6C
1508691644.64,56549,11.94,73294.5,-0.35,-1.21,-1.13,0,*6C
1508691645.9,56550,11.88,73290.0,-0.35,-1.13,-1.13,0,*65
1508691647.11,56551,11.88,73290.8,-0.37,-1.17,-1.13,0,*62
1508691648.38,56552,11.88,73290.5,-0.35,-1.13,-1.09,0,*6C
1508691649.64,56553,11.88,73290.8,-0.35,-1.09,-1.05,0,*6A
1508691650.88,56554,11.94,73294.8,-0.37,-1.13,-1.09,0,*68
1508691652.15,56555,11.88,73292.3,-0.35,-1.13,-1.09,0,*6B
1508691653.42,56556,11.94,73292.8,-0.35,-1.13,-1.05,0,*64
1508691654.68,56557,11.94,73292.5,-0.35,-1.13,-1.05,0,*65
1508691655.96,56558,11.94,73294.0,-0.35,-1.05,-1.05,0,*6D
1508691657.19,56559,11.94,73292.8,-0.37,-1.13,-1.13,0,*6E
1508691658.45,56560,11.88,73290.3,-0.35,-1.09,-1.09,0,*66
1508691659.72,56561,11.94,73294.5,-0.35,-1.09,-1.09,0,*67
1508691660.98,56562,11.88,73292.3,-0.35,-1.09,-1.05,0,*68
1508691662.22,56563,11.88,73290.8,-0.37,-1.13,-1.13,0,*67
1508691663.48,56564,11.88,73290.5,-0.35,-1.09,-1.09,0,*62
1508691664.74,56565,11.94,73294.0,-0.35,-1.09,-1.05,0,*6F
1508691665.98,56566,11.88,73290.5,-0.37,-1.13,-1.13,0,*62
1508691667.25,56567,11.94,73294.0,-0.35,-1.05,-1.05,0,*61
1508691668.51,56568,11.88,73292.0,-0.35,-1.09,-1.09,0,*6E
1508691669.78,56569,11.94,73294.5,-0.35,-1.09,-1.05,0,*63
1508691671.04,56570,11.94,73294.8,-0.35,-1.09,-1.09,0,*67
1508691672.3,56571,11.94,73294.5,-0.35,-1.09,-1.09,0,*66
1508691673.54,56572,11.94,73292.3,-0.33,-1.09,-1.09,0,*63
1508691674.78,56573,11.88,73288.8,-0.33,-1.09,-1.05,0,*6E
1508691676.02,56574,11.94,73290.8,-0.33,-1.09,-1.09,0,*65
1508691677.28,56575,11.94,73294.8,-0.35,-1.09,-1.09,0,*62
1508691678.54,56576,11.94,73294.0,-0.35,-1.09,-1.09,0,*61
1508691679.81,56577,11.94,73294.3,-0.35,-1.13,-1.09,0,*6B
1508691681.02,56578,11.94,73290.8,-0.37,-1.17,-1.09,0,*62
1508691682.24,56579,11.88,73288.8,-0.37,-1.17,-1.13,0,*68
1508691683.51,56580,11.94,73292.8,-0.35,-1.13,-1.09,0,*63
1508691684.77,56581,11.88,73290.5,-0.35,-1.13,-1.09,0,*62
1508691686.04,56582,11.88,73290.5,-0.35,-1.13,-1.05,0,*6D
1508691687.3,56583,11.88,73292.0,-0.35,-1.09,-1.05,0,*67
1508691688.57,56584,11.94,73294.5,-0.35,-1.09,-1.05,0,*60
1508691689.83,56585,11.94,73294.8,-0.35,-1.09,-1.09,0,*6D
1508691691.09,56586,11.94,73294.3,-0.35,-1.09,-1.09,0,*6E
1508691692.36,56587,11.88,73290.5,-0.35,-1.05,-1.09,0,*63
1508691693.59,56588,11.88,73290.0,-0.37,-1.09,-1.13,0,*69
1508691694.86,56589,11.94,73294.0,-0.35,-1.13,-1.09,0,*6A
1508691696.1,56590,11.88,73290.3,-0.35,-1.21,-1.09,0,*63
1508691697.36,56591,11.88,73292.0,-0.35,-1.13,-1.09,0,*63
1508691698.63,56592,11.88,73292.5,-0.35,-1.13,-1.09,0,*60
1508691699.87,56593,11.88,73292.5,-0.35,-1.21,-1.09,0,*60
1508691701.13,56594,11.94,73294.8,-0.35,-1.13,-1.09,0,*66
1508691702.4,56595,11.94,73294.0,-0.35,-1.13,-1.13,0,*6C
1508691703.66,56596,11.88,73290.8,-0.35,-1.13,-1.13,0,*6F
1508691704.92,56597,11.88,73290.5,-0.35,-1.13,-1.13,0,*6E
1508691706.19,56598,11.88,73290.8,-0.35,-1.13,-1.09,0,*6A
1508691707.45,56599,11.94,73294.0,-0.35,-1.13,-1.09,0,*6B
1508691708.72,56600,11.88,73292.5,-0.35,-1.13,-1.05,0,*64
1508691709.98,56601,11.94,73294.0,-0.35,-1.13,-1.09,0,*69
1508691711.2,56602,11.88,73292.5,-0.37,-1.17,-1.13,0,*67
1508691712.42,56603,11.88,73290.5,-0.33,-1.21,-1.09,0,*6C
1508691713.64,56604,11.88,73290.8,-0.35,-1.21,-1.21,0,*67
1508691714.91,56605,11.94,73294.5,-0.35,-1.13,-1.09,0,*6D
1508691716.15,56606,11.88,73288.3,-0.35,-1.21,-1.05,0,*63
1508691717.39,56607,11.88,73292.3,-0.35,-1.21,-1.09,0,*6E
1508691718.66,56608,11.88,73290.0,-0.35,-1.13,-1.09,0,*60
1508691719.92,56609,11.88,73290.5,-0.35,-1.13,-1.09,0,*61
1508691721.19,56610,11.94,73292.0,-0.35,-1.13,-1.09,0,*69
1508691722.45,56611,11.94,73292.8,-0.35,-1.13,-1.09,0,*68
1508691723.72,56612,11.88,73288.3,-0.35,-1.13,-1.05,0,*67
1508691724.99,56613,11.94,73294.0,-0.35,-1.13,-1.05,0,*66
1508691726.25,56614,11.88,73290.3,-0.35,-1.13,-1.09,0,*6D
1508691727.47,56615,11.88,73290.5,-0.33,-1.21,-1.09,0,*6B
1508691728.74,56616,11.94,73292.8,-0.35,-1.13,-1.13,0,*64
1508691730.0,56617,11.94,73292.8,-0.35,-1.13,-1.13,0,*65
1508691731.26,56618,11.94,73292.0,-0.35,-1.13,-1.13,0,*6A
1508691732.52,56619,11.88,73290.8,-0.35,-1.13,-1.09,0,*60
1508691733.79,56620,11.88,73288.0,-0.35,-1.13,-1.09,0,*6A
1508691735.05,56621,11.94,73294.3,-0.35,-1.13,-1.09,0,*6B
1508691736.29,56622,11.88,73290.8,-0.33,-1.13,-1.09,0,*6E
1508691737.51,56623,11.88,73288.5,-0.33,-1.25,-1.13,0,*61
1508691738.73,56624,11.94,73294.0,-0.35,-1.25,-1.21,0,*61
1508691739.92,56625,11.88,73290.8,-0.37,-1.29,-1.25,0,*6A
1508691741.16,56626,11.88,73290.3,-0.35,-1.13,-1.21,0,*66
1508691742.38,56627,11.88,73292.3,-0.37,-1.35,-1.17,0,*64
1508691743.59,56628,11.88,73290.0,-0.35,-1.25,-1.25,0,*69
1508691744.78,56629,11.88,73290.5,-0.37,-1.29,-1.25,0,*66
1508691745.97,56630,11.88,73288.5,-0.37,-1.29,-1.25,0,*6E
1508691747.16,56631,11.88,73292.3,-0.37,-1.29,-1.25,0,*6F
1508691748.38,56632,11.88,73290.0,-0.35,-1.33,-1.21,0,*61
1508691749.61,56633,11.94,73292.3,-0.35,-1.25,-1.13,0,*66
1508691750.88,56634,11.88,73290.0,-0.35,-1.13,-1.13,0,*64
1508691752.12,56635,11.88,73288.3,-0.35,-1.21,-1.13,0,*64
1508691753.34,56636,11.88,73290.5,-0.35,-1.21,-1.21,0,*66
1508691754.58,56637,11.94,73294.5,-0.35,-1.13,-1.17,0,*63
1508691755.77,56638,11.88,73292.5,-0.37,-1.25,-1.25,0,*6A
1508691756.96,56639,11.88,73292.3,-0.37,-1.25,-1.17,0,*6A
1508691758.2,56640,11.88,73292.5,-0.35,-1.21,-1.13,0,*66
1508691759.39,56641,11.88,73288.8,-0.37,-1.25,-1.17,0,*65
1508691760.63,56642,11.88,73288.5,-0.35,-1.21,-1.13,0,*64
1508691761.89,56643,11.88,73288.5,-0.35,-1.13,-1.13,0,*64
1508691763.15,56644,11.88,73294.3,-0.35,-1.13,-1.13,0,*63
1508691764.35,56645,11.88,73290.5,-0.37,-1.17,-1.17,0,*60
1508691765.55,56646,11.94,73294.0,-0.37,-1.17,-1.17,0,*63
1508691766.74,56647,11.88,73288.8,-0.37,-1.17,-1.17,0,*62
1508691768.0,56648,11.88,73290.5,-0.35,-1.13,-1.13,0,*6F
1508691769.24,56649,11.88,73290.3,-0.37,-1.13,-1.13,0,*6C
1508691770.45,56650,11.94,73292.5,-0.37,-1.17,-1.13,0,*60
1508691771.72,56651,11.88,73288.5,-0.35,-1.13,-1.09,0,*6C
1508691772.98,56652,11.88,73288.3,-0.35,-1.13,-1.09,0,*6F
1508691774.25,56653,11.88,73290.0,-0.35,-1.13,-1.09,0,*6E
1508691775.49,56654,11.88,73288.3,-0.35,-1.21,-1.09,0,*68
1508691776.73,56655,11.88,73290.0,-0.35,-1.21,-1.13,0,*62
1508691777.95,56656,11.88,73288.5,-0.35,-1.25,-1.21,0,*64
1508691779.15,56657,11.88,73288.3,-0.37,-1.17,-1.17,0,*63
1508691780.41,56658,11.88,73290.5,-0.35,-1.13,-1.13,0,*6E
1508691781.67,56659,11.88,73288.0,-0.35,-1.13,-1.13,0,*6F
1508691782.86,56660,11.94,73290.3,-0.37,-1.17,-1.25,0,*66
1508691784.05,56661,11.94,73292.0,-0.37,-1.25,-1.17,0,*67
1508691785.29,56662,11.88,73288.3,-0.35,-1.21,-1.13,0,*66
1508691786.48,56663,11.88,73290.0,-0.37,-1.25,-1.17,0,*65
1508691787.67,56664,11.88,73290.3,-0.37,-1.25,-1.21,0,*67
1508691788.86,56665,11.88,73288.3,-0.37,-1.25,-1.17,0,*63
1508691790.1,56666,11.88,73290.0,-0.35,-1.25,-1.13,0,*66
1508691791.29,56667,11.94,73294.0,-0.37,-1.29,-1.17,0,*6D
1508691792.53,56668,11.88,73292.5,-0.35,-1.25,-1.13,0,*68
1508691793.75,56669,11.88,73290.0,-0.35,-1.25,-1.21,0,*68
1508691794.96,56670,11.94,73292.5,-0.35,-1.33,-1.25,0,*63
1508691796.18,56671,11.88,73290.3,-0.35,-1.25,-1.25,0,*65
1508691797.39,56672,11.94,73292.3,-0.35,-1.33,-1.25,0,*61
1508691798.64,56673,11.88,73288.8,-0.37,-1.39,-1.39,0,*65
1508691799.83,56674,11.88,73292.3,-0.37,-1.29,-1.29,0,*62
1508691801.02,56675,11.94,73292.3,-0.37,-1.29,-1.25,0,*6F
1508691802.24,56676,11.88,73290.5,-0.35,-1.25,-1.21,0,*66
1508691803.43,56677,11.88,73290.5,-0.37,-1.29,-1.29,0,*61
1508691804.64,56678,11.94,73294.3,-0.37,-1.35,-1.25,0,*6F
1508691805.83,56679,11.88,73294.3,-0.37,-1.29,-1.25,0,*63
1508691807.03,56680,11.88,73292.3,-0.37,-1.21,-1.21,0,*69
1508691808.23,56681,11.88,73290.8,-0.37,-1.17,-1.17,0,*68
1508691809.42,56682,11.88,73288.5,-0.37,-1.25,-1.17,0,*6A
1508691810.63,56683,11.88,73290.3,-0.37,-1.35,-1.29,0,*67
1508691811.84,56684,11.88,73290.3,-0.37,-1.35,-1.29,0,*60
1508691813.06,56685,11.88,73290.8,-0.37,-1.35,-1.29,0,*61
1508691814.3,56686,11.88,73288.8,-0.37,-1.39,-1.35,0,*63
1508691815.52,56687,11.88,73290.0,-0.37,-1.35,-1.29,0,*63
1508691816.78,56688,11.88,73290.8,-0.39,-1.35,-1.35,0,*6F
1508691818.02,56689,11.94,73294.0,-0.39,-1.35,-1.17,0,*6E
1508691819.24,56690,11.88,73288.5,-0.39,-1.29,-1.17,0,*6B
1508691820.51,56691,11.88,73290.3,-0.39,-1.35,-1.35,0,*67
1508691821.75,56692,11.88,73290.5,-0.43,-1.39,-1.33,0,*63
1508691822.97,56693,11.88,73294.5,-0.39,-1.29,-1.17,0,*68
1508691824.19,56694,11.88,73290.8,-0.39,-1.29,-1.17,0,*6F
1508691825.4,56695,11.94,73292.8,-0.39,-1.25,-1.25,0,*63
1508691826.62,56696,11.88,73290.5,-0.39,-1.17,-1.17,0,*60
1508691827.84,56697,11.88,73290.5,-0.39,-1.29,-1.25,0,*6D
1508691829.07,56698,11.88,73288.3,-0.39,-1.35,-1.29,0,*63
1508691830.29,56699,11.94,73290.8,-0.39,-1.29,-1.29,0,*6F
1508691831.51,56700,11.88,73288.8,-0.39,-1.17,-1.29,0,*63
1508691832.73,56701,11.88,73290.5,-0.39,-1.25,-1.25,0,*6F
1508691834.0,56702,11.94,73292.8,-0.39,-1.39,-1.39,0,*6C
1508691835.24,56703,11.88,73290.0,-0.39,-1.39,-1.29,0,*6C
1508691836.49,56704,11.88,73290.0,-0.39,-1.35,-1.29,0,*67
1508691837.7,56705,11.88,73288.8,-0.39,-1.29,-1.25,0,*67
1508691838.92,56706,11.94,73292.8,-0.39,-1.17,-1.25,0,*69
1508691840.14,56707,11.88,73288.5,-0.39,-1.17,-1.17,0,*69
1508691841.36,56708,11.88,73288.3,-0.39,-1.25,-1.17,0,*67
1508691842.57,56709,11.88,73290.0,-0.43,-1.29,-1.29,0,*6A
1508691843.79,56710,11.88,73290.8,-0.43,-1.29,-1.21,0,*6A
1508691845.0,56711,11.88,73290.0,-0.39,-1.25,-1.25,0,*6E
1508691846.22,56712,11.88,73290.5,-0.39,-1.25,-1.25,0,*6D
1508691847.43,56713,11.88,73288.8,-0.39,-1.17,-1.25,0,*6D
1508691848.65,56714,11.94,73292.5,-0.39,-1.17,-1.17,0,*6B
1508691849.88,56715,11.88,73288.5,-0.39,-1.17,-1.17,0,*6A
1508691851.1,56716,11.88,73292.3,-0.43,-1.21,-1.21,0,*64
1508691852.31,56717,11.88,73290.3,-0.39,-1.25,-1.17,0,*69
1508691853.53,56718,11.88,73292.0,-0.39,-1.17,-1.17,0,*67
1508691854.75,56719,11.88,73288.0,-0.43,-1.29,-1.21,0,*63
1508691855.97,56720,11.94,73294.8,-0.39,-1.25,-1.25,0,*6C
1508691857.19,56721,11.88,73292.3,-0.39,-1.17,-1.17,0,*6D
1508691858.4,56722,11.88,73292.0,-0.39,-1.17,-1.25,0,*6F
1508691859.63,56723,11.88,73288.8,-0.39,-1.17,-1.17,0,*6F
1508691860.85,56724,11.88,73290.8,-0.43,-1.21,-1.21,0,*65
1508691862.07,56725,11.88,73288.0,-0.39,-1.17,-1.17,0,*69
1508691863.29,56726,11.88,73288.3,-0.43,-1.21,-1.21,0,*67
1508691864.51,56727,11.88,73286.5,-0.43,-1.21,-1.21,0,*66
1508691865.73,56728,11.88,73290.5,-0.43,-1.21,-1.21,0,*69
1508691866.95,56729,11.88,73288.8,-0.39,-1.17,-1.17,0,*65
1508691868.17,56730,11.88,73290.0,-0.43,-1.21,-1.21,0,*60
1508691869.39,56731,11.88,73290.3,-0.39,-1.17,-1.17,0,*6C
1508691870.61,56732,11.94,73290.3,-0.43,-1.29,-1.29,0,*62
1508691871.82,56733,11.88,73288.5,-0.39,-1.25,-1.25,0,*6E
1508691873.04,56734,11.88,73290.3,-0.39,-1.29,-1.25,0,*65
1508691874.25,56735,11.88,73288.5,-0.43,-1.33,-1.33,0,*65
1508691875.47,56736,11.88,73290.3,-0.43,-1.29,-1.29,0,*66
1508691876.68,56737,11.88,73286.3,-0.43,-1.33,-1.33,0,*67
1508691877.92,56738,11.94,73290.3,-0.43,-1.39,-1.33,0,*62
1508691879.14,56739,11.88,73290.0,-0.39,-1.29,-1.29,0,*64
1508691880.36,56740,11.88,73288.3,-0.43,-1.33,-1.33,0,*67
1508691881.58,56741,11.88,73288.5,-0.43,-1.29,-1.21,0,*6E
1508691882.79,56742,11.88,73290.3,-0.43,-1.29,-1.29,0,*65
1508691884.01,56743,11.88,73288.5,-0.43,-1.21,-1.21,0,*64
1508691885.23,56744,11.88,73290.5,-0.39,-1.29,-1.25,0,*62
1508691886.44,56745,11.88,73286.5,-0.43,-1.29,-1.29,0,*62
1508691887.66,56746,11.88,73288.3,-0.43,-1.33,-1.29,0,*6A
1508691888.87,56747,11.94,73294.3,-0.43,-1.33,-1.33,0,*60
1508691890.06,56748,11.94,73290.5,-0.45,-1.33,-1.33,0,*69
1508691891.29,56749,11.94,73290.3,-0.43,-1.29,-1.21,0,*66
1508691892.5,56750,11.88,73288.5,-0.43,-1.29,-1.21,0,*6E
1508691893.72,56751,11.88,73290.5,-0.43,-1.33,-1.29,0,*6C
1508691894.94,56752,11.88,73290.0,-0.43,-1.33,-1.33,0,*64
1508691896.15,56753,11.94,73294.3,-0.43,-1.29,-1.33,0,*6E
1508691897.37,56754,11.88,73290.0,-0.43,-1.33,-1.21,0,*61
1508691898.59,56755,11.88,73290.3,-0.43,-1.21,-1.21,0,*63
1508691899.81,56756,11.88,73286.8,-0.43,-1.29,-1.29,0,*60
1508691901.02,56757,11.88,73288.8,-0.43,-1.33,-1.29,0,*6A
1508691902.21,56758,11.88,73290.5,-0.45,-1.25,-1.25,0,*68
1508691903.39,56759,11.88,73286.5,-0.45,-1.25,-1.25,0,*69
1508691904.59,56760,11.88,73288.8,-0.45,-1.33,-1.25,0,*64
1508691905.77,56761,11.88,73288.8,-0.45,-1.25,-1.25,0,*62
1508691906.96,56762,11.94,73292.3,-0.45,-1.33,-1.33,0,*61
1508691908.15,56763,11.88,73290.8,-0.45,-1.33,-1.33,0,*60
1508691909.37,56764,11.88,73288.8,-0.39,-1.25,-1.25,0,*6C
1508691910.58,56765,11.94,73290.5,-0.43,-1.29,-1.29,0,*60
1508691911.8,56766,11.88,73290.0,-0.43,-1.21,-1.21,0,*63
1508691913.02,56767,11.88,73290.5,-0.43,-1.21,-1.21,0,*62
1508691914.24,56768,11.88,73290.8,-0.43,-1.21,-1.21,0,*6D
1508691915.46,56769,11.88,73290.8,-0.43,-1.29,-1.29,0,*6C
1508691916.67,56770,11.88,73288.5,-0.43,-1.29,-1.33,0,*6F
1508691917.86,56771,11.88,73290.3,-0.45,-1.25,-1.25,0,*63
1508691919.05,56772,11.94,73288.0,-0.45,-1.29,-1.33,0,*6B
1508691920.24,56773,11.94,73288.5,-0.45,-1.33,-1.33,0,*61
1508691921.43,56774,11.94,73290.5,-0.45,-1.25,-1.25,0,*66
1508691922.61,56775,11.88,73290.8,-0.45,-1.25,-1.25,0,*67
1508691923.83,56776,11.88,73288.5,-0.43,-1.21,-1.21,0,*62
1508691925.02,56777,11.88,73288.8,-0.45,-1.33,-1.25,0,*62
1508691926.21,56778,11.88,73288.8,-0.45,-1.33,-1.25,0,*6D
1508691927.44,56779,11.94,73290.5,-0.43,-1.21,-1.21,0,*6D
1508691928.66,56780,11.94,73292.5,-0.43,-1.21,-1.21,0,*6B
1508691929.88,56781,11.94,73290.8,-0.43,-1.21,-1.21,0,*6A
1508691931.1,56782,11.94,73292.5,-0.43,-1.21,-1.21,0,*69
1508691932.32,56783,11.88,73288.0,-0.43,-1.29,-1.21,0,*60
1508691933.54,56784,11.88,73290.5,-0.43,-1.21,-1.21,0,*6F
1508691934.75,56785,11.88,73288.0,-0.43,-1.29,-1.21,0,*66
1508691935.97,56786,11.94,73290.8,-0.43,-1.21,-1.21,0,*6D
1508691937.19,56787,11.88,73288.0,-0.43,-1.29,-1.29,0,*6C
1508691938.41,56788,11.88,73290.0,-0.45,-1.43,-1.33,0,*62
1508691939.59,56789,11.88,73290.0,-0.45,-1.25,-1.25,0,*64
1508691940.78,56790,11.88,73288.0,-0.45,-1.25,-1.25,0,*6C
1508691941.97,56791,11.88,73288.3,-0.45,-1.25,-1.25,0,*6D
1508691943.15,56792,11.88,73288.8,-0.45,-1.33,-1.25,0,*69
1508691944.34,56793,11.88,73290.0,-0.45,-1.33,-1.25,0,*68
1508691945.53,56794,11.88,73290.5,-0.45,-1.25,-1.25,0,*68
1508691946.74,56795,11.88,73290.5,-0.45,-1.35,-1.33,0,*6F
1508691947.99,56796,11.88,73290.3,-0.45,-1.43,-1.35,0,*6B
1508691949.2,56797,11.94,73292.0,-0.45,-1.35,-1.33,0,*6D
1508691950.44,56798,11.94,73290.3,-0.45,-1.35,-1.35,0,*64
1508691951.7,56799,11.88,73290.8,-0.47,-1.35,-1.35,0,*67
1508691952.89,56800,11.88,73288.8,-0.45,-1.25,-1.33,0,*6D
1508691954.08,56801,11.88,73290.5,-0.45,-1.33,-1.25,0,*6C
1508691955.27,56802,11.88,73290.0,-0.45,-1.25,-1.25,0,*68
1508691956.48,56803,11.88,73288.0,-0.47,-1.33,-1.33,0,*6B
1508691957.67,56804,11.88,73288.8,-0.45,-1.33,-1.33,0,*6E
1508691958.88,56805,11.94,73290.3,-0.47,-1.25,-1.25,0,*6D
1508691960.07,56806,11.88,73284.5,-0.45,-1.25,-1.25,0,*6C
1508691961.28,56807,11.88,73286.3,-0.47,-1.25,-1.25,0,*6F
1508691962.46,56808,11.88,73288.0,-0.45,-1.25,-1.25,0,*62
1508691963.66,56809,11.88,73286.0,-0.45,-1.33,-1.21,0,*60
1508691964.88,56810,11.88,73286.3,-0.47,-1.25,-1.21,0,*6D
1508691966.09,56811,11.94,73288.0,-0.47,-1.25,-1.21,0,*6C
1508691967.28,56812,11.88,73288.0,-0.45,-1.25,-1.25,0,*69
1508691968.47,56813,11.88,73288.8,-0.45,-1.33,-1.25,0,*6F
1508691969.68,56814,11.88,73286.8,-0.47,-1.33,-1.33,0,*6D
1508691970.9,56815,11.88,73288.8,-0.47,-1.33,-1.33,0,*6C
1508691972.13,56816,11.88,73284.0,-0.47,-1.35,-1.25,0,*6E
1508691973.37,56817,11.88,73286.8,-0.47,-1.35,-1.33,0,*68
1508691974.63,56818,11.88,73284.5,-0.47,-1.35,-1.43,0,*60
1508691975.87,56819,11.88,73284.3,-0.47,-1.43,-1.33,0,*67
1508691977.06,56820,11.88,73284.8,-0.45,-1.33,-1.33,0,*68
1508691978.27,56821,11.88,73284.8,-0.47,-1.33,-1.25,0,*6C
1508691979.48,56822,11.94,73288.0,-0.47,-1.33,-1.25,0,*6F
1508691980.69,56823,11.88,73284.8,-0.47,-1.25,-1.33,0,*6E
1508691981.89,56824,11.94,73286.5,-0.45,-1.33,-1.33,0,*6C
1508691983.15,56825,11.88,73284.5,-0.47,-1.35,-1.35,0,*6F
1508691984.39,56826,11.88,73284.5,-0.45,-1.35,-1.35,0,*6E
1508691985.63,56827,11.88,73288.3,-0.45,-1.35,-1.35,0,*6F
1508691986.87,56828,11.88,73286.8,-0.47,-1.35,-1.33,0,*64
1508691988.1,56829,11.88,73286.3,-0.47,-1.35,-1.25,0,*62
1508691989.32,56830,11.88,73286.0,-0.47,-1.33,-1.33,0,*6B
1508691990.52,56831,11.94,73290.8,-0.47,-1.25,-1.25,0,*6A
1508691991.73,56832,11.88,73286.3,-0.47,-1.25,-1.25,0,*69
1508691992.95,56833,11.94,73290.0,-0.47,-1.25,-1.21,0,*6C
1508691994.17,56834,11.94,73288.5,-0.47,-1.25,-1.21,0,*6B
1508691995.38,56835,11.94,73288.8,-0.47,-1.25,-1.21,0,*6A
1508691996.6,56836,11.88,73284.5,-0.47,-1.25,-1.17,0,*6C
1508691997.82,56837,11.94,73286.8,-0.47,-1.21,-1.21,0,*6C
1508691999.04,56838,11.88,73284.3,-0.47,-1.21,-1.21,0,*63
1508692000.25,56839,11.88,73286.0,-0.47,-1.21,-1.17,0,*67
1508692001.47,56840,11.88,73284.8,-0.47,-1.21,-1.21,0,*6C
1508692002.69,56841,11.88,73286.8,-0.47,-1.21,-1.21,0,*6D
1508692003.91,56842,11.88,73284.5,-0.47,-1.21,-1.21,0,*6E
1508692005.13,56843,11.88,73284.5,-0.47,-1.21,-1.21,0,*6F
1508692006.35,56844,11.88,73286.0,-0.47,-1.21,-1.21,0,*68
1508692007.55,56845,11.88,73286.0,-0.45,-1.21,-1.21,0,*6B
1508692008.77,56846,11.88,73284.3,-0.47,-1.25,-1.21,0,*6E
1508692009.96,56847,11.88,73286.3,-0.45,-1.25,-1.21,0,*6D
1508692011.17,56848,11.94,73288.5,-0.47,-1.25,-1.25,0,*64
1508692012.36,56849,11.94,73290.5,-0.45,-1.33,-1.25,0,*60
1508692013.57,56850,11.88,73284.3,-0.47,-1.25,-1.25,0,*6D
1508692014.76,56851,11.94,73288.3,-0.45,-1.25,-1.25,0,*6E
1508692015.96,56852,11.88,73286.5,-0.47,-1.25,-1.25,0,*6F
1508692017.15,56853,11.88,73286.8,-0.45,-1.33,-1.25,0,*6B
1508692018.36,56854,11.88,73286.0,-0.47,-1.25,-1.25,0,*69
1508692019.58,56855,11.88,73284.0,-0.47,-1.33,-1.33,0,*68
1508692020.8,56856,11.88,73284.5,-0.45,-1.33,-1.35,0,*6F
1508692022.07,56857,11.88,73288.3,-0.47,-1.43,-1.35,0,*6B
1508692023.3,56858,11.88,73284.8,-0.47,-1.35,-1.25,0,*64
1508692024.51,56859,11.88,73286.5,-0.47,-1.25,-1.25,0,*64
1508692025.72,56860,11.88,73284.0,-0.47,-1.25,-1.25,0,*6E
1508692026.93,56861,11.88,73288.8,-0.47,-1.33,-1.25,0,*68
1508692028.14,56862,11.88,73288.0,-0.47,-1.25,-1.25,0,*6C
1508692029.33,56863,11.88,73288.0,-0.45,-1.33,-1.25,0,*68
1508692030.54,56864,11.94,73288.0,-0.47,-1.25,-1.25,0,*6A
1508692031.75,56865,11.88,73286.3,-0.47,-1.25,-1.25,0,*6B
1508692032.96,56866,11.88,73286.8,-0.47,-1.25,-1.25,0,*68
1508692034.17,56867,11.94,73290.3,-0.47,-1.25,-1.25,0,*69
1508692035.38,56868,11.94,73288.8,-0.47,-1.21,-1.25,0,*62
1508692036.58,56869,11.88,73286.0,-0.45,-1.21,-1.17,0,*60
1508692037.8,56870,11.88,73286.5,-0.47,-1.21,-1.21,0,*6F
1508692039.02,56871,11.88,73290.0,-0.47,-1.21,-1.21,0,*6E
1508692040.24,56872,11.94,73288.3,-0.47,-1.21,-1.21,0,*6D
1508692041.46,56873,11.88,73282.5,-0.47,-1.21,-1.21,0,*6C
1508692042.68,56874,11.94,73290.0,-0.47,-1.21,-1.21,0,*6B
1508692043.9,56875,11.88,73286.0,-0.47,-1.21,-1.21,0,*6A
1508692045.12,56876,11.88,73286.3,-0.47,-1.21,-1.21,0,*69
1508692046.33,56877,11.94,73286.8,-0.47,-1.21,-1.17,0,*6D
1508692047.53,56878,11.94,73286.5,-0.45,-1.21,-1.17,0,*60
1508692048.75,56879,11.94,73288.5,-0.47,-1.21,-1.17,0,*63
1508692049.97,56880,11.88,73284.3,-0.47,-1.17,-1.21,0,*65
1508692051.17,56881,11.88,73284.3,-0.45,-1.21,-1.21,0,*63
1508692052.36,56882,11.88,73286.5,-0.45,-1.21,-1.17,0,*65
1508692053.56,56883,11.88,73284.3,-0.45,-1.17,-1.21,0,*64
1508692054.76,56884,11.94,73288.5,-0.45,-1.21,-1.21,0,*66
1508692055.98,56885,11.88,73284.3,-0.47,-1.21,-1.21,0,*65
1508692057.17,56886,11.94,73290.3,-0.45,-1.25,-1.21,0,*60
1508692058.38,56887,11.88,73284.3,-0.47,-1.25,-1.21,0,*63
1508692059.6,56888,11.88,73284.5,-0.47,-1.33,-1.21,0,*6B
1508692060.82,56889,11.88,73286.0,-0.47,-1.25,-1.21,0,*6D
1508692062.04,56890,11.88,73284.3,-0.47,-1.25,-1.21,0,*65
1508692063.25,56891,11.88,73286.3,-0.47,-1.25,-1.21,0,*64
1508692064.45,56892,11.94,73288.0,-0.45,-1.21,-1.21,0,*61
1508692065.64,56893,11.94,73286.5,-0.45,-1.25,-1.21,0,*64
1508692066.84,56894,11.88,73286.5,-0.45,-1.25,-1.21,0,*63
1508692068.05,56895,11.88,73282.3,-0.47,-1.25,-1.21,0,*60
1508692069.27,56896,11.88,73282.3,-0.47,-1.25,-1.21,0,*63
1508692070.48,56897,11.88,73284.5,-0.47,-1.25,-1.21,0,*62
1508692071.69,56898,11.88,73286.8,-0.47,-1.25,-1.25,0,*69
1508692072.91,56899,11.94,73288.3,-0.47,-1.25,-1.21,0,*6C
1508692074.1,56900,11.88,73284.0,-0.45,-1.25,-1.21,0,*6F
1508692075.3,56901,11.88,73284.3,-0.45,-1.25,-1.21,0,*6E
1508692076.52,56902,11.94,73286.8,-0.47,-1.21,-1.21,0,*6B
1508692077.71,56903,11.94,73286.0,-0.45,-1.25,-1.21,0,*6C
1508692078.93,56904,11.94,73284.8,-0.47,-1.21,-1.21,0,*6D
1508692080.15,56905,11.88,73286.0,-0.47,-1.21,-1.21,0,*6C
1508692081.37,56906,11.88,73286.5,-0.47,-1.21,-1.21,0,*6F
1508692082.56,56907,11.94,73284.8,-0.45,-1.33,-1.25,0,*6B
1508692083.75,56908,11.88,73284.5,-0.45,-1.25,-1.25,0,*63
1508692084.96,56909,11.88,73284.0,-0.47,-1.25,-1.17,0,*61
1508692086.18,56910,11.88,73282.5,-0.47,-1.25,-1.21,0,*6C
1508692087.39,56911,11.94,73286.3,-0.47,-1.25,-1.21,0,*6D
1508692088.61,56912,11.94,73286.3,-0.47,-1.25,-1.21,0,*6E
1508692089.82,56913,11.88,73284.3,-0.47,-1.21,-1.17,0,*6E
1508692091.05,56914,11.88,73284.0,-0.47,-1.17,-1.21,0,*69
1508692092.26,56915,11.94,73286.3,-0.47,-1.21,-1.17,0,*68
1508692093.48,56916,11.94,73284.5,-0.47,-1.21,-1.21,0,*6E
1508692094.7,56917,11.88,73284.3,-0.47,-1.21,-1.17,0,*6A
1508692095.92,56918,11.88,73286.5,-0.47,-1.21,-1.21,0,*60
1508692097.14,56919,11.94,73284.8,-0.47,-1.21,-1.21,0,*61
1508692098.36,56920,11.88,73284.5,-0.47,-1.21,-1.21,0,*6B
1508692099.58,56921,11.88,73284.0,-0.47,-1.17,-1.21,0,*6F
1508692100.78,56922,11.88,73284.8,-0.45,-1.21,-1.21,0,*6B
1508692101.98,56923,11.88,73286.5,-0.45,-1.21,-1.17,0,*6F
1508692103.17,56924,11.88,73284.3,-0.45,-1.17,-1.17,0,*6D
1508692104.37,56925,11.88,73282.8,-0.45,-1.17,-1.17,0,*6C
1508692105.59,56926,11.88,73284.0,-0.47,-1.17,-1.17,0,*6D
1508692106.78,56927,11.94,73284.0,-0.45,-1.17,-1.17,0,*6E